Time,TemperatureF,DewpointF,PressureIn,WindDirection,WindDirectionDegrees,WindSpeedMPH,WindSpeedGustMPH,Humidity,HourlyPrecipIn,Conditions,Clouds,dailyrainin,SoftwareType,DateUTC
2013-03-15 07:27:00,47.0,45.6,30.22,SSW,197,0.0,0.0,95,0.00,,,0.00,Wunderground v.1.15,2013-03-15 14:27:00,
2013-03-15 07:28:00,47.0,45.6,30.22,SSW,197,0.0,0.0,95,0.00,,,0.00,Wunderground v.1.15,2013-03-15 14:28:00,
2013-03-15 07:29:00,47.0,45.6,30.22,SSW,197,0.0,0.0,95,0.00,,,0.00,Wunderground v.1.15,2013-03-15 14:29:00,
2013-03-15 07:30:00,47.0,45.6,30.22,SSW,197,0.0,0.0,95,0.00,,,0.00,Wunderground v.1.15,2013-03-15 14:30:00,
2013-03-15 07:35:00,47.0,45.4,30.22,SSW,197,0.0,0.0,94,0.00,,,0.00,Wunderground v.1.15,2013-03-15 14:35:00,
2013-03-15 07:41:00,47.1,45.7,30.22,SSW,197,0.0,0.0,95,0.00,,,0.00,Wunderground v.1.15,2013-03-15 14:41:00,
2013-03-15 07:47:00,47.2,45.8,30.22,SSW,197,0.0,0.0,95,0.00,,,0.00,Wunderground v.1.15,2013-03-15 14:47:00,
2013-03-15 07:52:00,47.3,45.9,30.23,SSW,197,0.0,0.0,95,0.00,,,0.00,Wunderground v.1.15,2013-03-15 14:52:00,
2013-03-15 07:58:00,47.4,46.0,30.22,SSW,197,0.0,0.0,95,0.00,,,0.00,Wunderground v.1.15,2013-03-15 14:58:00,
2013-03-15 08:04:00,47.6,46.2,30.22,SSW,197,0.0,0.0,95,0.00,,,0.00,Wunderground v.1.15,2013-03-15 15:04:00,
2013-03-15 08:10:00,47.7,46.3,30.22,SSW,197,0.0,0.0,95,0.00,,,0.00,Wunderground v.1.15,2013-03-15 15:10:00,
2013-03-15 08:16:00,47.8,46.4,30.22,SSW,197,0.0,0.0,95,0.00,,,0.00,Wunderground v.1.15,2013-03-15 15:16:00,
2013-03-15 08:22:00,47.9,46.5,30.23,SSW,197,0.0,0.0,95,0.00,,,0.00,Wunderground v.1.15,2013-03-15 15:22:00,
2013-03-15 08:28:00,48.0,46.6,30.23,SSW,197,0.0,0.0,95,0.00,,,0.00,Wunderground v.1.15,2013-03-15 15:28:00,
2013-03-15 08:33:00,48.1,46.7,30.23,SSW,197,0.0,1.0,95,0.00,,,0.00,Wunderground v.1.15,2013-03-15 15:33:00,
2013-03-15 08:39:00,48.3,46.9,30.23,SSW,197,0.0,1.0,95,0.00,,,0.00,Wunderground v.1.15,2013-03-15 15:39:00,
2013-03-15 08:45:00,48.5,47.1,30.23,SSW,197,0.0,1.0,95,0.00,,,0.00,Wunderground v.1.15,2013-03-15 15:45:00,
2013-03-15 08:51:00,48.5,47.1,30.23,SSW,197,0.0,1.0,95,0.00,,,0.00,Wunderground v.1.15,2013-03-15 15:51:00,
2013-03-15 08:57:00,48.7,47.3,30.23,SSW,197,0.0,1.0,95,0.00,,,0.00,Wunderground v.1.15,2013-03-15 15:57:00,
2013-03-15 09:02:00,48.8,47.4,30.23,SSW,197,0.0,1.0,95,0.00,,,0.00,Wunderground v.1.15,2013-03-15 16:02:00,
2013-03-15 09:07:00,49.2,47.8,30.23,SSW,197,0.0,1.0,95,0.00,,,0.00,Wunderground v.1.15,2013-03-15 16:07:00,
2013-03-15 09:13:00,49.8,48.4,30.23,SSW,196,0.0,1.0,95,0.00,,,0.00,Wunderground v.1.15,2013-03-15 16:13:00,
2013-03-15 09:19:00,50.4,48.7,30.23,SSW,196,0.0,1.0,94,0.00,,,0.00,Wunderground v.1.15,2013-03-15 16:19:00,
2013-03-15 09:24:00,51.0,49.0,30.23,SSW,196,0.0,1.0,93,0.00,,,0.00,Wunderground v.1.15,2013-03-15 16:24:00,
2013-03-15 09:30:00,52.0,49.5,30.23,SSW,196,0.0,1.0,91,0.00,,,0.00,Wunderground v.1.15,2013-03-15 16:30:00,
2013-03-15 09:35:00,52.8,49.6,30.23,SSW,196,0.0,1.0,89,0.00,,,0.00,Wunderground v.1.15,2013-03-15 16:35:00,
2013-03-15 09:41:00,53.5,49.1,30.23,SSW,196,0.0,1.0,85,0.00,,,0.00,Wunderground v.1.15,2013-03-15 16:41:00,
2013-03-15 09:47:00,53.9,49.5,30.23,SSW,196,0.0,1.0,85,0.00,,,0.00,Wunderground v.1.15,2013-03-15 16:47:00,
2013-03-15 09:52:00,53.8,48.8,30.23,SSW,196,0.0,1.0,83,0.00,,,0.00,Wunderground v.1.15,2013-03-15 16:52:00,
2013-03-15 09:58:00,53.6,48.9,30.23,SSW,196,0.0,1.0,84,0.00,,,0.00,Wunderground v.1.15,2013-03-15 16:58:00,
2013-03-15 10:03:00,53.5,48.8,30.23,SSW,196,0.0,1.0,84,0.00,,,0.00,Wunderground v.1.15,2013-03-15 17:03:00,
2013-03-15 10:09:00,53.5,48.8,30.23,SSW,196,0.0,1.0,84,0.00,,,0.00,Wunderground v.1.15,2013-03-15 17:09:00,
2013-03-15 10:15:00,54.0,49.6,30.23,SSW,196,0.0,1.0,85,0.00,,,0.00,Wunderground v.1.15,2013-03-15 17:15:00,
2013-03-15 10:21:00,54.5,49.8,30.23,SSW,198,0.0,1.0,84,0.00,,,0.00,Wunderground v.1.15,2013-03-15 17:21:00,
2013-03-15 10:26:00,55.2,50.1,30.23,ENE,72,0.0,2.0,83,0.00,,,0.00,Wunderground v.1.15,2013-03-15 17:26:00,
2013-03-15 10:31:00,55.4,49.7,30.23,ESE,122,0.0,1.0,81,0.00,,,0.00,Wunderground v.1.15,2013-03-15 17:31:00,
2013-03-15 10:37:00,55.8,50.1,30.23,SE,126,0.0,3.0,81,0.00,,,0.00,Wunderground v.1.15,2013-03-15 17:37:00,
2013-03-15 10:42:00,55.5,49.8,30.23,SE,126,1.0,1.0,81,0.00,,,0.00,Wunderground v.1.15,2013-03-15 17:42:00,
2013-03-15 10:47:00,55.4,49.3,30.23,ESE,115,1.0,3.0,80,0.00,,,0.00,Wunderground v.1.15,2013-03-15 17:47:00,
2013-03-15 10:53:00,55.3,49.2,30.23,ESE,113,1.0,3.0,80,0.00,,,0.00,Wunderground v.1.15,2013-03-15 17:53:00,
2013-03-15 10:58:00,55.4,49.3,30.23,ESE,120,1.0,3.0,80,0.00,,,0.00,Wunderground v.1.15,2013-03-15 17:58:00,
2013-03-15 11:03:00,55.6,49.5,30.23,ESE,120,1.0,3.0,80,0.00,,,0.00,Wunderground v.1.15,2013-03-15 18:03:00,
2013-03-15 11:09:00,55.9,50.2,30.23,SSW,205,1.0,3.0,81,0.00,,,0.00,Wunderground v.1.15,2013-03-15 18:09:00,
2013-03-15 11:15:00,56.5,50.1,30.22,East,83,1.0,2.0,79,0.00,,,0.00,Wunderground v.1.15,2013-03-15 18:15:00,
2013-03-15 11:20:00,56.8,50.0,30.22,SSE,155,1.0,2.0,78,0.00,,,0.00,Wunderground v.1.15,2013-03-15 18:20:00,
2013-03-15 11:26:00,57.8,50.6,30.22,East,86,1.0,4.0,77,0.00,,,0.00,Wunderground v.1.15,2013-03-15 18:26:00,
2013-03-15 11:32:00,57.3,49.4,30.22,East,91,2.0,2.0,75,0.00,,,0.00,Wunderground v.1.15,2013-03-15 18:32:00,
2013-03-15 11:38:00,57.4,49.5,30.22,SSE,160,1.0,3.0,75,0.00,,,0.00,Wunderground v.1.15,2013-03-15 18:38:00,
2013-03-15 11:43:00,58.2,51.0,30.22,SSE,165,1.0,2.0,77,0.00,,,0.00,Wunderground v.1.15,2013-03-15 18:43:00,
2013-03-15 11:49:00,58.8,50.2,30.23,SE,140,1.0,3.0,73,0.00,,,0.00,Wunderground v.1.15,2013-03-15 18:49:00,
2013-03-15 11:55:00,59.0,50.4,30.23,SSW,196,0.0,3.0,73,0.00,,,0.00,Wunderground v.1.15,2013-03-15 18:55:00,
2013-03-15 12:00:00,59.2,49.8,30.23,SW,218,1.0,3.0,71,0.00,,,0.00,Wunderground v.1.15,2013-03-15 19:00:00,
2013-03-15 12:05:00,59.6,50.6,30.23,SW,221,1.0,4.0,72,0.00,,,0.00,Wunderground v.1.15,2013-03-15 19:05:00,
2013-03-15 12:11:00,60.0,50.6,30.22,SW,225,1.0,3.0,71,0.00,,,0.00,Wunderground v.1.15,2013-03-15 19:11:00,
2013-03-15 12:16:00,60.3,50.9,30.23,SSW,194,1.0,3.0,71,0.00,,,0.00,Wunderground v.1.15,2013-03-15 19:16:00,
2013-03-15 12:22:00,60.6,52.6,30.23,SW,223,2.0,2.0,75,0.00,,,0.00,Wunderground v.1.15,2013-03-15 19:22:00,
2013-03-15 12:28:00,60.6,53.0,30.23,SW,224,1.0,2.0,76,0.00,,,0.00,Wunderground v.1.15,2013-03-15 19:28:00,
2013-03-15 12:34:00,60.5,51.8,30.23,SW,224,0.0,1.0,73,0.00,,,0.00,Wunderground v.1.15,2013-03-15 19:34:00,
2013-03-15 12:39:00,60.5,51.4,30.22,SW,224,0.0,2.0,72,0.00,,,0.00,Wunderground v.1.15,2013-03-15 19:39:00,
2013-03-15 12:44:00,60.7,52.0,30.23,SW,224,0.0,1.0,73,0.00,,,0.00,Wunderground v.1.15,2013-03-15 19:44:00,
2013-03-15 12:50:00,61.0,51.9,30.23,SW,224,1.0,1.0,72,0.00,,,0.00,Wunderground v.1.15,2013-03-15 19:50:00,
2013-03-15 12:56:00,61.2,52.1,30.22,SW,224,1.0,1.0,72,0.00,,,0.00,Wunderground v.1.15,2013-03-15 19:56:00,
2013-03-15 13:02:00,61.3,51.4,30.22,SW,224,0.0,6.0,70,0.00,,,0.00,Wunderground v.1.15,2013-03-15 20:02:00,
2013-03-15 13:07:00,61.3,51.4,30.22,SW,227,0.0,6.0,70,0.00,,,0.00,Wunderground v.1.15,2013-03-15 20:07:00,
2013-03-15 13:13:00,61.2,51.3,30.22,NNW,332,2.0,6.0,70,0.00,,,0.00,Wunderground v.1.15,2013-03-15 20:13:00,
2013-03-15 13:18:00,60.4,51.3,30.22,WNW,290,3.0,6.0,72,0.00,,,0.00,Wunderground v.1.15,2013-03-15 20:18:00,
2013-03-15 13:24:00,61.0,51.1,30.22,NW,318,2.0,6.0,70,0.00,,,0.00,Wunderground v.1.15,2013-03-15 20:24:00,
2013-03-15 13:30:00,60.9,50.3,30.22,NW,324,1.0,1.0,68,0.00,,,0.00,Wunderground v.1.15,2013-03-15 20:30:00,
2013-03-15 13:36:00,61.0,50.8,30.22,NW,324,1.0,6.0,69,0.00,,,0.00,Wunderground v.1.15,2013-03-15 20:36:00,
2013-03-15 13:42:00,61.3,51.0,30.22,SW,228,1.0,6.0,69,0.00,,,0.00,Wunderground v.1.15,2013-03-15 20:42:00,
2013-03-15 13:47:00,61.6,51.3,30.21,WNW,302,1.0,6.0,69,0.00,,,0.00,Wunderground v.1.15,2013-03-15 20:47:00,
2013-03-15 13:53:00,61.8,51.1,30.21,NNW,338,2.0,6.0,68,0.00,,,0.00,Wunderground v.1.15,2013-03-15 20:53:00,
2013-03-15 13:59:00,62.0,51.3,30.21,NW,310,3.0,6.0,68,0.00,,,0.00,Wunderground v.1.15,2013-03-15 20:59:00,
2013-03-15 14:04:00,62.1,51.0,30.21,NW,306,4.0,7.0,67,0.00,,,0.00,Wunderground v.1.15,2013-03-15 21:04:00,
2013-03-15 14:10:00,62.2,51.9,30.21,SW,228,4.0,4.0,69,0.00,,,0.00,Wunderground v.1.15,2013-03-15 21:10:00,
2013-03-15 14:16:00,62.8,51.7,30.21,WNW,296,2.0,6.0,67,0.00,,,0.00,Wunderground v.1.15,2013-03-15 21:16:00,
2013-03-15 14:22:00,63.0,52.3,30.21,West,270,2.0,6.0,68,0.00,,,0.00,Wunderground v.1.15,2013-03-15 21:22:00,
2013-03-15 14:28:00,63.3,51.3,30.21,WNW,290,3.0,9.0,65,0.00,,,0.00,Wunderground v.1.15,2013-03-15 21:28:00,
2013-03-15 14:34:00,62.7,50.8,30.21,NW,319,6.0,11.0,65,0.00,,,0.00,Wunderground v.1.15,2013-03-15 21:34:00,
2013-03-15 14:39:00,62.3,50.8,30.20,NW,319,5.0,11.0,66,0.00,,,0.00,Wunderground v.1.15,2013-03-15 21:39:00,
2013-03-15 14:45:00,62.2,51.1,30.20,NW,306,3.0,6.0,67,0.00,,,0.00,Wunderground v.1.15,2013-03-15 21:45:00,
2013-03-15 14:51:00,62.0,50.9,30.20,WNW,290,4.0,6.0,67,0.00,,,0.00,Wunderground v.1.15,2013-03-15 21:51:00,
2013-03-15 14:56:00,62.1,51.0,30.20,WNW,300,4.0,6.0,67,0.00,,,0.00,Wunderground v.1.15,2013-03-15 21:56:00,
2013-03-15 15:02:00,62.3,51.2,30.19,WNW,300,3.0,6.0,67,0.00,,,0.00,Wunderground v.1.15,2013-03-15 22:02:00,
2013-03-15 15:08:00,62.7,51.2,30.19,NW,309,3.0,7.0,66,0.00,,,0.00,Wunderground v.1.15,2013-03-15 22:08:00,
2013-03-15 15:14:00,62.7,51.2,30.19,WNW,284,4.0,6.0,66,0.00,,,0.00,Wunderground v.1.15,2013-03-15 22:14:00,
2013-03-15 15:20:00,62.4,50.9,30.19,WNW,302,4.0,6.0,66,0.00,,,0.00,Wunderground v.1.15,2013-03-15 22:20:00,
2013-03-15 15:25:00,62.2,51.1,30.19,West,273,5.0,10.0,67,0.00,,,0.00,Wunderground v.1.15,2013-03-15 22:25:00,
2013-03-15 15:30:00,62.2,51.5,30.19,West,262,4.0,4.0,68,0.00,,,0.00,Wunderground v.1.15,2013-03-15 22:30:00,
2013-03-15 15:35:00,62.3,51.2,30.19,SW,217,3.0,7.0,67,0.00,,,0.00,Wunderground v.1.15,2013-03-15 22:35:00,
2013-03-15 15:41:00,62.6,51.5,30.19,SW,217,3.0,7.0,67,0.00,,,0.00,Wunderground v.1.15,2013-03-15 22:41:00,
2013-03-15 15:47:00,62.5,51.4,30.19,SW,233,4.0,7.0,67,0.00,,,0.00,Wunderground v.1.15,2013-03-15 22:47:00,
2013-03-15 15:52:00,62.1,51.4,30.19,West,265,4.0,6.0,68,0.00,,,0.00,Wunderground v.1.15,2013-03-15 22:52:00,
2013-03-15 15:58:00,61.9,51.2,30.19,NW,323,3.0,9.0,68,0.00,,,0.00,Wunderground v.1.15,2013-03-15 22:58:00,
2013-03-15 16:04:00,61.8,51.1,30.19,NW,317,3.0,6.0,68,0.00,,,0.00,Wunderground v.1.15,2013-03-15 23:04:00,
2013-03-15 16:09:00,61.7,50.6,30.19,WNW,294,4.0,9.0,67,0.00,,,0.00,Wunderground v.1.15,2013-03-15 23:09:00,
2013-03-15 16:14:00,61.6,50.9,30.19,NW,313,5.0,8.0,68,0.00,,,0.00,Wunderground v.1.15,2013-03-15 23:14:00,
2013-03-15 16:20:00,61.6,51.3,30.19,NNW,331,5.0,6.0,69,0.00,,,0.00,Wunderground v.1.15,2013-03-15 23:20:00,
2013-03-15 16:26:00,61.2,50.9,30.19,WNW,292,6.0,8.0,69,0.00,,,0.00,Wunderground v.1.15,2013-03-15 23:26:00,
2013-03-15 16:31:00,61.0,50.8,30.19,West,275,5.0,8.0,69,0.00,,,0.00,Wunderground v.1.15,2013-03-15 23:31:00,
2013-03-15 16:36:00,60.9,51.0,30.19,WNW,301,4.0,9.0,70,0.00,,,0.00,Wunderground v.1.15,2013-03-15 23:36:00,
2013-03-15 16:42:00,60.4,50.6,30.19,NW,313,5.0,6.0,70,0.00,,,0.00,Wunderground v.1.15,2013-03-15 23:42:00,
2013-03-15 16:47:00,60.2,51.1,30.19,WSW,242,5.0,6.0,72,0.00,,,0.00,Wunderground v.1.15,2013-03-15 23:47:00,
2013-03-15 16:52:00,60.3,50.9,30.19,WNW,288,4.0,12.0,71,0.00,,,0.00,Wunderground v.1.15,2013-03-15 23:52:00,
2013-03-15 16:58:00,60.2,50.8,30.19,West,259,4.0,12.0,71,0.00,,,0.00,Wunderground v.1.15,2013-03-15 23:58:00,
2013-03-15 17:04:00,60.0,50.6,30.19,West,265,3.0,7.0,71,0.00,,,0.00,Wunderground v.1.15,2013-03-16 00:04:00,
2013-03-15 17:10:00,59.7,50.3,30.19,West,276,3.0,3.0,71,0.00,,,0.00,Wunderground v.1.15,2013-03-16 00:10:00,
2013-03-15 17:15:00,59.4,50.7,30.19,West,259,3.0,6.0,73,0.00,,,0.00,Wunderground v.1.15,2013-03-16 00:15:00,
2013-03-15 17:21:00,59.0,50.0,30.19,West,264,3.0,6.0,72,0.00,,,0.00,Wunderground v.1.15,2013-03-16 00:21:00,
2013-03-15 17:26:00,58.5,49.9,30.19,SW,226,4.0,7.0,73,0.00,,,0.00,Wunderground v.1.15,2013-03-16 00:26:00,
2013-03-15 17:32:00,57.9,49.7,30.19,WSW,257,4.0,6.0,74,0.00,,,0.00,Wunderground v.1.15,2013-03-16 00:32:00,
2013-03-15 17:37:00,57.3,49.4,30.19,West,271,4.0,11.0,75,0.00,,,0.00,Wunderground v.1.15,2013-03-16 00:37:00,
2013-03-15 17:43:00,56.9,49.4,30.20,WNW,297,4.0,6.0,76,0.00,,,0.00,Wunderground v.1.15,2013-03-16 00:43:00,
2013-03-15 17:49:00,56.7,49.2,30.20,West,267,3.0,6.0,76,0.00,,,0.00,Wunderground v.1.15,2013-03-16 00:49:00,
2013-03-15 17:55:00,56.3,49.2,30.20,WNW,284,3.0,6.0,77,0.00,,,0.00,Wunderground v.1.15,2013-03-16 00:55:00,
2013-03-15 18:00:00,56.0,48.9,30.20,WSW,255,2.0,6.0,77,0.00,,,0.00,Wunderground v.1.15,2013-03-16 01:00:00,
2013-03-15 18:05:00,55.9,49.8,30.20,SW,236,2.0,6.0,80,0.00,,,0.00,Wunderground v.1.15,2013-03-16 01:05:00,
2013-03-15 18:11:00,55.8,49.0,30.20,WSW,257,3.0,4.0,78,0.00,,,0.00,Wunderground v.1.15,2013-03-16 01:11:00,
2013-03-15 18:17:00,55.6,49.2,30.20,SW,217,3.0,5.0,79,0.00,,,0.00,Wunderground v.1.15,2013-03-16 01:17:00,
2013-03-15 18:22:00,55.3,48.9,30.19,SW,228,3.0,3.0,79,0.00,,,0.00,Wunderground v.1.15,2013-03-16 01:22:00,
2013-03-15 18:28:00,54.9,48.8,30.19,WSW,243,3.0,4.0,80,0.00,,,0.00,Wunderground v.1.15,2013-03-16 01:28:00,
2013-03-15 18:34:00,54.8,48.7,30.19,WSW,238,2.0,4.0,80,0.00,,,0.00,Wunderground v.1.15,2013-03-16 01:34:00,
2013-03-15 18:40:00,54.7,49.0,30.19,SW,234,2.0,3.0,81,0.00,,,0.00,Wunderground v.1.15,2013-03-16 01:40:00,
2013-03-15 18:46:00,54.6,48.9,30.19,SW,236,3.0,4.0,81,0.00,,,0.00,Wunderground v.1.15,2013-03-16 01:46:00,
2013-03-15 18:51:00,54.3,48.6,30.19,SW,235,3.0,3.0,81,0.00,,,0.00,Wunderground v.1.15,2013-03-16 01:51:00,
2013-03-15 18:57:00,54.0,48.3,30.19,SW,234,3.0,4.0,81,0.00,,,0.00,Wunderground v.1.15,2013-03-16 01:57:00,
2013-03-15 19:03:00,53.7,48.0,30.19,SW,219,3.0,13.0,81,0.00,,,0.00,Wunderground v.1.15,2013-03-16 02:03:00,
2013-03-15 19:09:00,53.4,48.0,30.20,SW,236,2.0,13.0,82,0.00,,,0.00,Wunderground v.1.15,2013-03-16 02:09:00,
2013-03-15 19:15:00,53.2,47.8,30.20,WSW,244,3.0,13.0,82,0.00,,,0.00,Wunderground v.1.15,2013-03-16 02:15:00,
2013-03-15 19:20:00,53.0,48.0,30.20,WSW,250,2.0,2.0,83,0.00,,,0.00,Wunderground v.1.15,2013-03-16 02:20:00,
2013-03-15 19:26:00,52.6,47.6,30.19,WNW,288,2.0,13.0,83,0.00,,,0.00,Wunderground v.1.15,2013-03-16 02:26:00,
2013-03-15 19:31:00,52.3,47.3,30.20,SSW,209,2.0,13.0,83,0.00,,,0.00,Wunderground v.1.15,2013-03-16 02:31:00,
2013-03-15 19:37:00,52.0,47.3,30.20,WSW,250,2.0,13.0,84,0.00,,,0.00,Wunderground v.1.15,2013-03-16 02:37:00,
2013-03-15 19:42:00,51.7,47.3,30.20,WNW,288,2.0,13.0,85,0.00,,,0.00,Wunderground v.1.15,2013-03-16 02:42:00,
2013-03-15 19:48:00,51.5,47.1,30.20,West,266,1.0,13.0,85,0.00,,,0.00,Wunderground v.1.15,2013-03-16 02:48:00,
2013-03-15 19:54:00,51.4,47.0,30.20,SW,214,2.0,13.0,85,0.00,,,0.00,Wunderground v.1.15,2013-03-16 02:54:00,
2013-03-15 19:59:00,51.3,46.9,30.20,West,272,2.0,13.0,85,0.00,,,0.00,Wunderground v.1.15,2013-03-16 02:59:00,
2013-03-15 20:05:00,51.2,47.2,30.20,WSW,241,1.0,13.0,86,0.00,,,0.00,Wunderground v.1.15,2013-03-16 03:05:00,
2013-03-15 20:10:00,51.1,47.1,30.20,SW,233,2.0,13.0,86,0.00,,,0.00,Wunderground v.1.15,2013-03-16 03:10:00,
2013-03-15 20:16:00,51.0,47.0,30.20,West,263,3.0,13.0,86,0.00,,,0.00,Wunderground v.1.15,2013-03-16 03:16:00,
2013-03-15 20:22:00,50.8,46.8,30.20,WSW,242,2.0,13.0,86,0.00,,,0.00,Wunderground v.1.15,2013-03-16 03:22:00,
2013-03-15 20:27:00,50.7,46.7,30.20,SW,232,2.0,13.0,86,0.00,,,0.00,Wunderground v.1.15,2013-03-16 03:27:00,
2013-03-15 20:32:00,50.6,46.9,30.20,WNW,292,2.0,13.0,87,0.00,,,0.00,Wunderground v.1.15,2013-03-16 03:32:00,
2013-03-15 20:38:00,50.5,46.8,30.20,WNW,286,1.0,13.0,87,0.00,,,0.00,Wunderground v.1.15,2013-03-16 03:38:00,
2013-03-15 20:43:00,50.4,46.7,30.20,SW,227,1.0,13.0,87,0.00,,,0.00,Wunderground v.1.15,2013-03-16 03:43:00,
2013-03-15 20:49:00,50.3,46.6,30.20,SW,228,2.0,13.0,87,0.00,,,0.00,Wunderground v.1.15,2013-03-16 03:49:00,
2013-03-15 20:54:00,50.2,46.5,30.20,WSW,245,2.0,13.0,87,0.00,,,0.00,Wunderground v.1.15,2013-03-16 03:54:00,
2013-03-15 21:00:00,50.0,46.6,30.20,SW,215,2.0,13.0,88,0.00,,,0.00,Wunderground v.1.15,2013-03-16 04:00:00,
2013-03-15 21:01:00,50.0,46.6,30.20,WSW,250,2.0,13.0,88,0.00,,,0.00,Wunderground v.1.15,2013-03-16 04:01:00,
2013-03-15 21:02:00,50.0,46.6,30.20,WSW,250,2.0,13.0,88,0.00,,,0.00,Wunderground v.1.15,2013-03-16 04:02:00,
2013-03-15 21:05:00,49.9,46.5,30.20,SW,219,2.0,13.0,88,0.00,,,0.00,Wunderground v.1.15,2013-03-16 04:05:00,
2013-03-15 21:11:00,49.8,46.4,30.20,WNW,284,2.0,13.0,88,0.00,,,0.00,Wunderground v.1.15,2013-03-16 04:11:00,
2013-03-15 21:17:00,49.6,46.2,30.19,West,275,1.0,13.0,88,0.00,,,0.00,Wunderground v.1.15,2013-03-16 04:17:00,
2013-03-15 21:23:00,49.4,46.0,30.19,West,277,1.0,13.0,88,0.00,,,0.00,Wunderground v.1.15,2013-03-16 04:23:00,
2013-03-15 21:28:00,49.2,45.8,30.20,West,267,1.0,13.0,88,0.00,,,0.00,Wunderground v.1.15,2013-03-16 04:28:00,
2013-03-15 21:34:00,49.1,45.7,30.19,West,267,0.0,13.0,88,0.00,,,0.00,Wunderground v.1.15,2013-03-16 04:34:00,
2013-03-15 21:40:00,49.0,45.6,30.20,WSW,249,0.0,13.0,88,0.00,,,0.00,Wunderground v.1.15,2013-03-16 04:40:00,
2013-03-15 21:45:00,48.8,45.4,30.20,West,273,0.0,13.0,88,0.00,,,0.00,Wunderground v.1.15,2013-03-16 04:45:00,
2013-03-15 21:51:00,48.6,45.5,30.20,West,265,0.0,13.0,89,0.00,,,0.00,Wunderground v.1.15,2013-03-16 04:51:00,
2013-03-15 21:57:00,48.4,45.3,30.20,West,265,0.0,13.0,89,0.00,,,0.00,Wunderground v.1.15,2013-03-16 04:57:00,
2013-03-15 22:02:00,48.3,45.2,30.20,West,265,0.0,13.0,89,0.00,,,0.00,Wunderground v.1.15,2013-03-16 05:02:00,
2013-03-15 22:07:00,48.2,45.1,30.19,West,265,0.0,13.0,89,0.00,,,0.00,Wunderground v.1.15,2013-03-16 05:07:00,
2013-03-15 22:12:00,48.1,45.3,30.19,West,265,0.0,13.0,90,0.00,,,0.00,Wunderground v.1.15,2013-03-16 05:12:00,
2013-03-15 22:18:00,48.1,45.3,30.19,West,265,0.0,13.0,90,0.00,,,0.00,Wunderground v.1.15,2013-03-16 05:18:00,
2013-03-15 22:23:00,48.1,45.3,30.19,West,265,0.0,13.0,90,0.00,,,0.00,Wunderground v.1.15,2013-03-16 05:23:00,
2013-03-15 22:29:00,48.1,45.3,30.19,West,265,0.0,13.0,90,0.00,,,0.00,Wunderground v.1.15,2013-03-16 05:29:00,
2013-03-15 22:35:00,48.2,45.7,30.19,West,265,0.0,13.0,91,0.00,,,0.00,Wunderground v.1.15,2013-03-16 05:35:00,
2013-03-15 22:40:00,48.2,45.4,30.19,West,265,0.0,13.0,90,0.00,,,0.00,Wunderground v.1.15,2013-03-16 05:40:00,
2013-03-15 22:46:00,48.3,45.5,30.19,West,265,0.0,13.0,90,0.00,,,0.00,Wunderground v.1.15,2013-03-16 05:46:00,
2013-03-15 22:52:00,48.4,45.9,30.19,West,265,0.0,13.0,91,0.00,,,0.00,Wunderground v.1.15,2013-03-16 05:52:00,
2013-03-15 22:58:00,48.4,45.9,30.19,West,265,0.0,13.0,91,0.00,,,0.00,Wunderground v.1.15,2013-03-16 05:58:00,
2013-03-15 23:03:00,48.5,46.0,30.19,West,261,0.0,13.0,91,0.00,,,0.00,Wunderground v.1.15,2013-03-16 06:03:00,
2013-03-15 23:09:00,48.6,46.1,30.19,West,261,0.0,13.0,91,0.00,,,0.00,Wunderground v.1.15,2013-03-16 06:09:00,
2013-03-15 23:14:00,48.6,46.1,30.19,West,261,0.0,13.0,91,0.00,,,0.00,Wunderground v.1.15,2013-03-16 06:14:00,
2013-03-15 23:20:00,48.7,45.9,30.19,West,261,0.0,13.0,90,0.00,,,0.00,Wunderground v.1.15,2013-03-16 06:20:00,
2013-03-15 23:26:00,48.7,45.9,30.19,West,261,0.0,13.0,90,0.00,,,0.00,Wunderground v.1.15,2013-03-16 06:26:00,
2013-03-15 23:31:00,48.7,45.9,30.19,West,261,0.0,13.0,90,0.00,,,0.00,Wunderground v.1.15,2013-03-16 06:31:00,
2013-03-15 23:37:00,48.7,45.9,30.19,West,261,0.0,13.0,90,0.00,,,0.00,Wunderground v.1.15,2013-03-16 06:37:00,
2013-03-15 23:43:00,48.7,45.9,30.19,West,261,0.0,13.0,90,0.00,,,0.00,Wunderground v.1.15,2013-03-16 06:43:00,
2013-03-15 23:48:00,48.7,45.9,30.19,West,261,0.0,13.0,90,0.00,,,0.00,Wunderground v.1.15,2013-03-16 06:48:00,
2013-03-15 23:54:00,48.8,46.0,30.19,West,261,0.0,13.0,90,0.00,,,0.00,Wunderground v.1.15,2013-03-16 06:54:00,